When you browse on this site, cookies collect data to enhance your experience and personalize the content and advertising you see.
Visit our Privacy Policy to learn more. By continuing to use the site, you agree to this use of cookies and data.
  • en France
  • Liste des pays
  • À 7 jours
  • Température de l'eau
  • Carte météo
  • Widgets météo
  • user-avatar
    Se connecter

    Météo par heure à Ondjiva 

    Ce jour, 25 Février, Mardi

    Heure Température Précipitation Vent Pression Humidité
    00:00 +24°C° 0 mm 3 m/s 666 mmHg 45%
    01:00 +21°C° 0 mm 3 m/s 666 mmHg 49%
    02:00 +21°C° 0 mm 3 m/s 665 mmHg 51%
    03:00 +20°C° 0 mm 2 m/s 665 mmHg 53%
    04:00 +20°C° 0 mm 2 m/s 665 mmHg 54%
    05:00 +20°C° 0 mm 2 m/s 665 mmHg 57%
    06:00 +21°C° 0 mm 2 m/s 666 mmHg 59%
    07:00 +22°C° 0 mm 1 m/s 666 mmHg 60%
    08:00 +25°C° 0 mm 1 m/s 667 mmHg 55%
    09:00 +27°C° 0 mm 2 m/s 667 mmHg 51%
    10:00 +29°C° 0 mm 2 m/s 668 mmHg 46%
    11:00 +31°C° 0 mm 2 m/s 667 mmHg 43%
    12:00 +32°C° 0 mm 2 m/s 667 mmHg 40%
    13:00 +35°C° 0 mm 2 m/s 667 mmHg 34%
    14:00 +34°C° 0 mm 3 m/s 666 mmHg 35%
    15:00 +34°C° 0 mm 3 m/s 665 mmHg 35%
    16:00 +34°C° 0 mm 3 m/s 664 mmHg 36%
    17:00 +31°C° 0 mm 3 m/s 664 mmHg 41%
    18:00 +30°C° 0 mm 3 m/s 664 mmHg 46%
    19:00 +28°C° 0 mm 2 m/s 664 mmHg 51%
    20:00 +27°C° 0 mm 2 m/s 665 mmHg 54%
    21:00 +26°C° 0 mm 2 m/s 665 mmHg 58%
    22:00 +25°C° 0 mm 2 m/s 666 mmHg 61%
    23:00 +25°C° 0.1 mm 2 m/s 666 mmHg 62%

    Demain, 26 Février, Mercredi

    Heure Température Précipitation Vent Pression Humidité
    00:00 +25°C° 0.1 mm 2 m/s 666 mmHg 63%
    01:00 +25°C° 0.1 mm 1 m/s 666 mmHg 65%
    02:00 +24°C° 0.6 mm 1 m/s 666 mmHg 70%
    03:00 +23°C° 0.6 mm 1 m/s 665 mmHg 76%
    04:00 +23°C° 0.6 mm 1 m/s 665 mmHg 82%
    05:00 +23°C° 0.1 mm 2 m/s 665 mmHg 83%
    06:00 +23°C° 0.1 mm 2 m/s 666 mmHg 84%
    07:00 +21°C° 0.1 mm 2 m/s 666 mmHg 86%
    08:00 +25°C° 0 mm 2 m/s 667 mmHg 77%
    09:00 +27°C° 0 mm 2 m/s 667 mmHg 68%
    10:00 +29°C° 0 mm 2 m/s 667 mmHg 59%
    11:00 +30°C° 0.1 mm 2 m/s 667 mmHg 54%
    12:00 +31°C° 0.1 mm 2 m/s 667 mmHg 50%
    13:00 +32°C° 0.1 mm 2 m/s 666 mmHg 45%
    14:00 +33°C° 0.1 mm 3 m/s 666 mmHg 45%
    15:00 +33°C° 0.1 mm 3 m/s 665 mmHg 45%
    16:00 +33°C° 0.1 mm 4 m/s 664 mmHg 44%
    17:00 +31°C° 0 mm 3 m/s 664 mmHg 48%
    18:00 +29°C° 0 mm 3 m/s 664 mmHg 52%
    19:00 +28°C° 0 mm 3 m/s 664 mmHg 56%
    20:00 +27°C° 0 mm 3 m/s 665 mmHg 60%
    21:00 +26°C° 0 mm 3 m/s 665 mmHg 63%
    22:00 +26°C° 0 mm 3 m/s 666 mmHg 66%
    23:00 +25°C° 0.1 mm 2 m/s 666 mmHg 68%

    Après-demain, 27 Février, Jeudi

    Heure Température Précipitation Vent Pression Humidité
    00:00 +25°C° 0.1 mm 1 m/s 666 mmHg 69%
    01:00 +22°C° 0.1 mm 0 m/s 666 mmHg 70%
    02:00 +22°C° 0 mm 0 m/s 665 mmHg 72%
    03:00 +24°C° 0 mm 1 m/s 665 mmHg 74%
    04:00 +23°C° 0 mm 1 m/s 665 mmHg 75%
    05:00 +24°C° 0.1 mm 1 m/s 665 mmHg 75%
    06:00 +24°C° 0.1 mm 1 m/s 666 mmHg 75%
    07:00 +24°C° 0.1 mm 1 m/s 667 mmHg 75%
    08:00 +26°C° 0.6 mm 1 m/s 667 mmHg 67%
    09:00 +28°C° 0.6 mm 1 m/s 667 mmHg 60%
    10:00 +30°C° 0.6 mm 1 m/s 668 mmHg 53%
    11:00 +30°C° 0.2 mm 1 m/s 667 mmHg 52%
    12:00 +30°C° 0.2 mm 2 m/s 666 mmHg 52%
    13:00 +30°C° 0.2 mm 2 m/s 665 mmHg 52%
    14:00 +31°C° 0 mm 2 m/s 665 mmHg 49%
    15:00 +32°C° 0 mm 2 m/s 665 mmHg 47%
    16:00 +32°C° 0 mm 2 m/s 664 mmHg 44%
    17:00 +31°C° 0.1 mm 2 m/s 664 mmHg 49%
    18:00 +30°C° 0.1 mm 2 m/s 664 mmHg 53%
    19:00 +28°C° 0.1 mm 1 m/s 664 mmHg 58%
    20:00 +27°C° 1.2 mm 1 m/s 665 mmHg 65%
    21:00 +26°C° 1.2 mm 1 m/s 665 mmHg 72%
    22:00 +25°C° 1.2 mm 1 m/s 665 mmHg 79%
    23:00 +24°C° 1.8 mm 1 m/s 665 mmHg 81%

    28 Février, Vendredi

    Heure Température Précipitation Vent Pression Humidité
    00:00 +24°C° 1.8 mm 1 m/s 665 mmHg 82%
    01:00 +24°C° 1.8 mm 1 m/s 665 mmHg 84%
    02:00 +23°C° 1.1 mm 1 m/s 665 mmHg 85%
    03:00 +23°C° 1.1 mm 2 m/s 664 mmHg 86%
    04:00 +23°C° 1.1 mm 2 m/s 664 mmHg 87%
    05:00 +23°C° 0.6 mm 2 m/s 665 mmHg 88%
    06:00 +23°C° 0.6 mm 2 m/s 665 mmHg 88%
    07:00 +23°C° 0.6 mm 2 m/s 665 mmHg 89%
    08:00 +21°C° 0.3 mm 2 m/s 666 mmHg 88%
    09:00 +21°C° 0.3 mm 2 m/s 666 mmHg 87%
    10:00 +21°C° 0.3 mm 2 m/s 666 mmHg 87%
    11:00 +23°C° 0.4 mm 2 m/s 666 mmHg 82%
    12:00 +25°C° 0.4 mm 2 m/s 666 mmHg 77%
    13:00 +26°C° 0.4 mm 2 m/s 665 mmHg 72%
    14:00 +25°C° 1.4 mm 2 m/s 665 mmHg 76%
    15:00 +24°C° 1.4 mm 2 m/s 664 mmHg 80%
    16:00 +24°C° 1.4 mm 2 m/s 664 mmHg 84%
    17:00 +23°C° 1.6 mm 2 m/s 664 mmHg 86%
    18:00 +23°C° 1.6 mm 2 m/s 664 mmHg 88%
    19:00 +21°C° 1.6 mm 2 m/s 665 mmHg 90%
    20:00 +21°C° 5.5 mm 2 m/s 665 mmHg 92%
    21:00 +21°C° 5.5 mm 3 m/s 665 mmHg 94%
    22:00 +20°C° 5.5 mm 3 m/s 665 mmHg 96%
    23:00 +20°C° 9.4 mm 4 m/s 665 mmHg 96%

    29 Février, Samedi

    Heure Température Précipitation Vent Pression Humidité
    00:00 +20°C° 9.4 mm 5 m/s 664 mmHg 96%
    01:00 +20°C° 9.4 mm 6 m/s 664 mmHg 96%
    02:00 +20°C° 9.1 mm 5 m/s 664 mmHg 96%
    03:00 +20°C° 9.1 mm 5 m/s 664 mmHg 96%
    04:00 +19°C° 9.1 mm 5 m/s 663 mmHg 95%
    05:00 +19°C° 6 mm 5 m/s 664 mmHg 95%
    06:00 +19°C° 6 mm 6 m/s 664 mmHg 94%
    07:00 +19°C° 6 mm 6 m/s 665 mmHg 94%
    08:00 +19°C° 3.9 mm 6 m/s 665 mmHg 93%
    09:00 +18°C° 3.9 mm 7 m/s 666 mmHg 93%
    10:00 +18°C° 3.9 mm 7 m/s 666 mmHg 93%
    11:00 +19°C° 1.3 mm 6 m/s 666 mmHg 92%
    12:00 +19°C° 1.3 mm 6 m/s 666 mmHg 92%
    13:00 +20°C° 1.3 mm 6 m/s 665 mmHg 91%
    14:00 +19°C° 0.1 mm 5 m/s 665 mmHg 87%
    15:00 +19°C° 0.1 mm 5 m/s 665 mmHg 84%
    16:00 +19°C° 0.1 mm 4 m/s 664 mmHg 80%
    17:00 +19°C° 0.1 mm 4 m/s 665 mmHg 79%
    18:00 +19°C° 0.1 mm 3 m/s 665 mmHg 78%
    19:00 +19°C° 0.1 mm 3 m/s 665 mmHg 78%
    20:00 +19°C° 0 mm 2 m/s 665 mmHg 76%
    21:00 +18°C° 0 mm 2 m/s 666 mmHg 75%
    22:00 +18°C° 0 mm 2 m/s 666 mmHg 74%
    23:00 +18°C° 0 mm 2 m/s 666 mmHg 74%

    1 Mars, Dimanche

    Heure Température Précipitation Vent Pression Humidité
    00:00 +18°C° 0 mm 2 m/s 666 mmHg 74%
    01:00 +20°C° 0 mm 1 m/s 666 mmHg 75%
    02:00 +19°C° 0 mm 1 m/s 666 mmHg 75%
    03:00 +18°C° 0 mm 2 m/s 665 mmHg 76%
    04:00 +18°C° 0 mm 2 m/s 665 mmHg 77%
    05:00 +18°C° 0 mm 2 m/s 666 mmHg 78%
    06:00 +18°C° 0 mm 2 m/s 666 mmHg 79%
    07:00 +19°C° 0 mm 2 m/s 666 mmHg 79%
    08:00 +19°C° 0 mm 2 m/s 667 mmHg 75%
    09:00 +20°C° 0 mm 3 m/s 667 mmHg 71%
    10:00 +21°C° 0 mm 3 m/s 668 mmHg 67%
    11:00 +21°C° 0.1 mm 3 m/s 667 mmHg 69%
    12:00 +20°C° 0.1 mm 3 m/s 666 mmHg 72%
    13:00 +20°C° 0.1 mm 2 m/s 666 mmHg 75%
    14:00 +21°C° 0 mm 2 m/s 665 mmHg 66%
    15:00 +24°C° 0 mm 3 m/s 665 mmHg 58%
    16:00 +25°C° 0 mm 3 m/s 665 mmHg 50%
    17:00 +24°C° 0 mm 2 m/s 665 mmHg 51%
    18:00 +23°C° 0 mm 2 m/s 665 mmHg 53%
    19:00 +23°C° 0 mm 1 m/s 665 mmHg 54%
    20:00 +21°C° 0 mm 2 m/s 665 mmHg 56%
    21:00 +21°C° 0 mm 2 m/s 665 mmHg 57%
    22:00 +20°C° 0 mm 2 m/s 666 mmHg 59%
    23:00 +20°C° 0 mm 2 m/s 666 mmHg 60%
    Voir plus